This is the latest recevied weather packets stored in our database for station/object IT9DBI-3. If no packets are shown the sender has not sent any weather packets the latest 10 day(s).
| Time | Temp. | Humidity | Pressure | Rain* | Wind** | Luminosity | Snow |
|---|---|---|---|---|---|---|---|
| 1788522952 | 35.56° C | 41% | 1016.6 hPa | - | - | - | - |
| 1788521751 | 34.44° C | 44% | 1016.7 hPa | - | - | - | - |
| 1788520549 | 35° C | 45% | 1016.7 hPa | - | - | - | - |
| 1788519348 | 34.44° C | 46% | 1016.8 hPa | - | - | - | - |
| 1788518147 | 33.89° C | 47% | 1016.8 hPa | - | - | - | - |
| 1788516946 | 34.44° C | 45% | 1016.8 hPa | - | - | - | - |
| 1788515744 | 33.89° C | 45% | 1016.9 hPa | - | - | - | - |
| 1788514543 | 32.78° C | 49% | 1017 hPa | - | - | - | - |
| 1788513348 | 33.89° C | 47% | 1016.8 hPa | - | - | - | - |
| 1788512140 | 33.33° C | 47% | 1016.9 hPa | - | - | - | - |
| 1788510939 | 33.89° C | 45% | 1016.9 hPa | - | - | - | - |
| 1788509738 | 33.33° C | 46% | 1016.8 hPa | - | - | - | - |
| 1788508536 | 32.78° C | 46% | 1016.6 hPa | - | - | - | - |
| 1788507335 | 33.33° C | 46% | 1016.2 hPa | - | - | - | - |
| 1788506134 | 32.78° C | 47% | 1016.1 hPa | - | - | - | - |
| 1788504932 | 33.89° C | 44% | 1016 hPa | - | - | - | - |
| 1788503730 | 32.22° C | 47% | 1016.3 hPa | - | - | - | - |
| 1788502528 | 32.78° C | 48% | 1016.1 hPa | - | - | - | - |
| 1788501327 | 32.22° C | 49% | 1016.1 hPa | - | - | - | - |
| 1788500126 | 31.67° C | 50% | 1016.1 hPa | - | - | - | - |
| 1788498924 | 31.67° C | 51% | 1016.1 hPa | - | - | - | - |
| 1788497723 | 32.22° C | 50% | 1015.7 hPa | - | - | - | - |
| 1788496522 | 31.11° C | 52% | 1015.7 hPa | - | - | - | - |
| 1788495320 | 31.11° C | 53% | 1015.6 hPa | - | - | - | - |
| 1788494119 | 30.56° C | 56% | 1015.8 hPa | - | - | - | - |
* Rain since midnight (hover to see other rain measurements)
** Current wind speed in m/s (hover to see current wind gust speed)